Zurück zum Katalog

STARLINK-3552

AktivKommunikationVLEO
NORAD 51813·PAYLOAD·🇺🇸 United States

Gestartet Feb 25, 2022 von Vandenberg Space Force Base

Loading…

Nächste Überflüge (nächste 24 Stunden)

TLE

AktuellSource: CelesTrak SupGP

Epoche: Sep 14, 2026, 21:30 UTC

1 51813C 22017AX  26257.89631944 -.00013648  00000+0 -39041-3 0  2576
2 51813  53.1583 189.6493 0001282  96.9221 258.5499 15.35411118    10

Verfolge STARLINK-3552 in Echtzeit mit AllMySat

Download on the App Store